QPF
0.04 0.05 0.05 0.05 0.05 0.06 0.05 0.03 0.01 0.01 0.00 0.01 0.01 0.00 0.00 0.00 0.00 0.00 0.00 0.00 0.00 0.00 0.00 0.00 0.00 0.00 0.00 0.00 0.00 0.00 0.00 0.00 0.00 0.00 0.00 0.00 0.00 0.00 0.00 0.00 0.00 0.00 0.00 0.00
0.06 0.04 0.03 0.04 0.05 0.06 0.05 0.03 0.01 0.01 0.01 0.01 0.00 0.00 0.00 0.00 0.00 0.00 0.00 0.00 0.00 0.00 0.00 0.00 0.00 0.00 0.00 0.00 0.00 0.00 0.00 0.00 0.00 0.00 0.00 0.00 0.00 0.00 0.00 0.00 0.00 0.00 0.00 0.00
0.04 0.03 0.04 0.03 0.04 0.04 0.03 0.01 0.00 0.01 0.01 0.01 0.00 0.00 0.00 0.00 0.00 0.00 0.00 0.00 0.00 0.00 0.00 0.00 0.00 0.00 0.00 0.00 0.00 0.00 0.00 0.00 0.00 0.00 0.00 0.00 0.00 0.00 0.00 0.00 0.00 0.00 0.00 0.00
0.05 0.03 0.02 0.02 0.02 0.02 0.01 0.00 0.00 0.01 0.01 0.01 0.00 0.00 0.00 0.00 0.00 0.00 0.00 0.00 0.00 0.00 0.00 0.00 0.00 0.00 0.00 0.00 0.00 0.00 0.00 0.00 0.00 0.00 0.00 0.00 0.00 0.00 0.00 0.00 0.00 0.00 0.00 0.00
0.03 0.02 0.02 0.01 0.01 0.01 0.01 0.01 0.01 0.01 0.00 0.00 0.00 0.00 0.00 0.00 0.00 0.00 0.00 0.00 0.00 0.00 0.00 0.00 0.00 0.00 0.00 0.00 0.00 0.00 0.00 0.00 0.00 0.00 0.00 0.00 0.00 0.00 0.00 0.00 0.00 0.00 0.00 0.00
0.05 0.03 0.02 0.02 0.01 0.01 0.02 0.01 0.01 0.00 0.00 0.00 0.00 0.00 0.00 0.00 0.00 0.00 0.00 0.00 0.00 0.00 0.00 0.00 0.00 0.00 0.00 0.00 0.00 0.00 0.00 0.00 0.00 0.00 0.00 0.00 0.00 0.00 0.00 0.00 0.00 0.00 0.00 0.00
0.04 0.03 0.02 0.02 0.02 0.01 0.01 0.00 0.00 0.00 0.00 0.00 0.00 0.00 0.00 0.00 0.00 0.00 0.00 0.00 0.00 0.00 0.00 0.00 0.00 0.00 0.00 0.00 0.00 0.00 0.00 0.00 0.00 0.00 0.00 0.00 0.00 0.00 0.00 0.00 0.00 0.00 0.00 0.00
0.01 0.01 0.01 0.01 0.01 0.01 0.00 0.00 0.00 0.00 0.00 0.00 0.00 0.00 0.00 0.00 0.00 0.00 0.00 0.00 0.00 0.00 0.00 0.00 0.00 0.00 0.00 0.00 0.00 0.00 0.00 0.00 0.00 0.00 0.00 0.00 0.00 0.00 0.00 0.00 0.00 0.00 0.00 0.00
0.00 0.00 0.00 0.00 0.00 0.00 0.00 0.00 0.00 0.00 0.00 0.00 0.00 0.00 0.00 0.00 0.00 0.00 0.00 0.00 0.00 0.00 0.00 0.00 0.00 0.00 0.00 0.00 0.00 0.00 0.00 0.00 0.00 0.00 0.00 0.00 0.00 0.00 0.00 0.00 0.00 0.00 0.00 0.00
0.00 0.00 0.00 0.00 0.00 0.00 0.00 0.00 0.00 0.00 0.00 0.00 0.00 0.00 0.00 0.00 0.00 0.00 0.00 0.00 0.00 0.00 0.00 0.00 0.00 0.00 0.00 0.00 0.00 0.00 0.00 0.00 0.00 0.00 0.00 0.00 0.00 0.00 0.00 0.00 0.00 0.00 0.00 0.00
0.00 0.00 0.00 0.00 0.00 0.00 0.00 0.00 0.00 0.00 0.00 0.00 0.00 0.00 0.00 0.00 0.00 0.00 0.00 0.00 0.00 0.00 0.00 0.00 0.00 0.00 0.00 0.00 0.00 0.00 0.00 0.00 0.00 0.00 0.00 0.00 0.00 0.00 0.00 0.00 0.00 0.00 0.00 0.00
0.00 0.00 0.00 0.00 0.00 0.00 0.00 0.00 0.00 0.00 0.00 0.00 0.00 0.00 0.00 0.00 0.00 0.00 0.00 0.00 0.00 0.00 0.00 0.00 0.00 0.00 0.00 0.00 0.00 0.00 0.00 0.00 0.00 0.00 0.00 0.00 0.00 0.00 0.00 0.00 0.00 0.00 0.00 0.00
0.00 0.00 0.00 0.00 0.00 0.00 0.00 0.00 0.00 0.00 0.00 0.00 0.00 0.00 0.00 0.00 0.00 0.00 0.00 0.00 0.00 0.00 0.00 0.00 0.00 0.00 0.00 0.00 0.00 0.00 0.00 0.00 0.00 0.00 0.00 0.00 0.00 0.00 0.00 0.00 0.00 0.00 0.00 0.00
0.00 0.00 0.00 0.00 0.00 0.00 0.00 0.00 0.00 0.00 0.00 0.00 0.00 0.00 0.00 0.00 0.00 0.00 0.00 0.00 0.00 0.00 0.00 0.00 0.00 0.00 0.00 0.00 0.00 0.00 0.00 0.00 0.00 0.00 0.00 0.00 0.00 0.00 0.00 0.00 0.00 0.00 0.00 0.00
0.00 0.00 0.00 0.00 0.00 0.00 0.00 0.00 0.00 0.00 0.00 0.00 0.00 0.00 0.00 0.00 0.00 0.00 0.00 0.00 0.00 0.00 0.00 0.00 0.00 0.00 0.00 0.00 0.00 0.00 0.00 0.00 0.00 0.00 0.00 0.00 0.00 0.00 0.00 0.00 0.00 0.00 0.00 0.00
0.00 0.00 0.00 0.00 0.00 0.00 0.00 0.00 0.00 0.00 0.00 0.00 0.00 0.00 0.00 0.00 0.00 0.00 0.00 0.00 0.00 0.00 0.00 0.00 0.00 0.00 0.00 0.00 0.00 0.00 0.00 0.00 0.00 0.00 0.00 0.00 0.00 0.00 0.00 0.00 0.00 0.00 0.00 0.00
0.00 0.00 0.00 0.00 0.00 0.00 0.00 0.00 0.00 0.00 0.00 0.00 0.00 0.00 0.00 0.00 0.00 0.00 0.00 0.00 0.00 0.00 0.00 0.00 0.00 0.00 0.00 0.00 0.00 0.00 0.00 0.00 0.00 0.00 0.00 0.00 0.00 0.00 0.00 0.00 0.00 0.00 0.00 0.00
0.00 0.00 0.00 0.00 0.00 0.00 0.00 0.00 0.00 0.00 0.00 0.00 0.00 0.00 0.00 0.00 0.00 0.00 0.00 0.00 0.00 0.00 0.00 0.00 0.00 0.00 0.00 0.00 0.00 0.00 0.00 0.00 0.00 0.00 0.00 0.00 0.00 0.00 0.00 0.00 0.00 0.00 0.00 0.00
0.00 0.00 0.00 0.00 0.00 0.00 0.00 0.00 0.00 0.00 0.00 0.00 0.00 0.00 0.00 0.00 0.00 0.00 0.00 0.00 0.00 0.00 0.00 0.00 0.00 0.00 0.00 0.00 0.00 0.00 0.00 0.00 0.00 0.00 0.00 0.00 0.00 0.00 0.00 0.00 0.00 0.00 0.00 0.00
0.00 0.00 0.00 0.00 0.00 0.00 0.00 0.00 0.00 0.00 0.00 0.00 0.00 0.00 0.00 0.00 0.00 0.00 0.00 0.00 0.00 0.00 0.00 0.00 0.00 0.00 0.00 0.00 0.00 0.00 0.00 0.00 0.00 0.00 0.00 0.00 0.00 0.00 0.00 0.00 0.00 0.00 0.00 0.00
0.00 0.00 0.00 0.00 0.00 0.00 0.00 0.00 0.00 0.00 0.00 0.00 0.00 0.00 0.00 0.00 0.00 0.00 0.00 0.00 0.00 0.00 0.00 0.00 0.00 0.00 0.00 0.00 0.00 0.00 0.00 0.00 0.00 0.00 0.00 0.00 0.00 0.00 0.00 0.00 0.00 0.00 0.00 0.00
0.00 0.00 0.00 0.00 0.00 0.00 0.00 0.00 0.00 0.00 0.00 0.00 0.00 0.00 0.00 0.00 0.00 0.00 0.00 0.00 0.00 0.00 0.00 0.00 0.00 0.00 0.00 0.00 0.00 0.00 0.00 0.00 0.00 0.00 0.00 0.00 0.00 0.00 0.00 0.00 0.00 0.00 0.00 0.00
0.00 0.00 0.00 0.00 0.00 0.00 0.00 0.00 0.00 0.00 0.00 0.00 0.00 0.00 0.00 0.00 0.00 0.00 0.00 0.00 0.00 0.00 0.00 0.00 0.00 0.00 0.00 0.00 0.00 0.00 0.00 0.00 0.00 0.00 0.00 0.00 0.00 0.00 0.00 0.00 0.00 0.00 0.00 0.00
0.00 0.00 0.00 0.00 0.00 0.00 0.00 0.00 0.00 0.00 0.00 0.00 0.00 0.00 0.00 0.00 0.00 0.00 0.00 0.00 0.00 0.00 0.00 0.00 0.00 0.00 0.00 0.00 0.00 0.00 0.00 0.00 0.00 0.00 0.00 0.00 0.00 0.00 0.00 0.00 0.00 0.00 0.00 0.00
0.00 0.00 0.00 0.00 0.00 0.00 0.00 0.00 0.00 0.00 0.00 0.00 0.00 0.00 0.00 0.00 0.00 0.00 0.00 0.00 0.00 0.00 0.00 0.00 0.00 0.00 0.00 0.00 0.00 0.00 0.00 0.00 0.00 0.00 0.00 0.00 0.00 0.00 0.00 0.00 0.00 0.00 0.00 0.00
0.00 0.00 0.00 0.00 0.00 0.00 0.00 0.00 0.00 0.00 0.00 0.00 0.00 0.00 0.00 0.00 0.00 0.00 0.00 0.00 0.00 0.00 0.00 0.00 0.00 0.00 0.00 0.00 0.00 0.00 0.00 0.00 0.00 0.00 0.00 0.00 0.00 0.00 0.00 0.00 0.00 0.00 0.00 0.00
MSLP
1012.14 1013.34 1014.32 1015.03 1015.49 1015.73 1015.82 1015.83 1015.79 1015.74 1015.68 1015.59 1015.46 1015.27 1015.02 1014.73 1014.45 1014.21 1014.06 1014.01 1014.09 1014.26 1014.49 1014.75 1014.98 1015.15 1015.27 1015.33 1015.35 1015.37 1015.42 1015.51 1015.63 1015.77 1015.90 1015.99 1016.01 1015.95 1015.80 1015.59 1015.36 1015.14 1014.96 1014.85
1012.70 1013.70 1014.47 1015.01 1015.35 1015.54 1015.65 1015.74 1015.82 1015.90 1015.94 1015.92 1015.79 1015.54 1015.19 1014.77 1014.36 1014.00 1013.77 1013.68 1013.76 1013.96 1014.23 1014.53 1014.80 1014.99 1015.11 1015.17 1015.20 1015.24 1015.33 1015.47 1015.67 1015.89 1016.09 1016.22 1016.26 1016.18 1015.99 1015.72 1015.43 1015.17 1014.96 1014.84
1013.04 1013.82 1014.40 1014.78 1015.04 1015.23 1015.42 1015.64 1015.89 1016.12 1016.27 1016.30 1016.16 1015.84 1015.36 1014.79 1014.22 1013.73 1013.40 1013.27 1013.34 1013.56 1013.89 1014.25 1014.56 1014.79 1014.94 1015.01 1015.06 1015.12 1015.24 1015.43 1015.68 1015.96 1016.21 1016.39 1016.45 1016.36 1016.15 1015.85 1015.52 1015.22 1014.99 1014.87
1013.16 1013.72 1014.12 1014.40 1014.63 1014.88 1015.21 1015.60 1016.04 1016.43 1016.71 1016.79 1016.62 1016.19 1015.57 1014.82 1014.07 1013.43 1012.99 1012.80 1012.86 1013.11 1013.50 1013.91 1014.29 1014.58 1014.76 1014.85 1014.91 1014.99 1015.12 1015.34 1015.62 1015.94 1016.23 1016.45 1016.53 1016.46 1016.25 1015.95 1015.61 1015.29 1015.05 1014.92
1013.10 1013.47 1013.73 1013.94 1014.21 1014.57 1015.07 1015.67 1016.31 1016.88 1017.26 1017.37 1017.15 1016.61 1015.81 1014.87 1013.94 1013.14 1012.58 1012.32 1012.36 1012.64 1013.08 1013.57 1014.02 1014.36 1014.59 1014.71 1014.78 1014.85 1014.98 1015.19 1015.48 1015.81 1016.12 1016.36 1016.48 1016.44 1016.27 1015.99 1015.66 1015.35 1015.11 1014.97
1012.95 1013.15 1013.32 1013.52 1013.86 1014.37 1015.06 1015.88 1016.71 1017.43 1017.90 1018.01 1017.73 1017.05 1016.08 1014.95 1013.82 1012.86 1012.18 1011.86 1011.88 1012.18 1012.68 1013.24 1013.76 1014.17 1014.44 1014.59 1014.66 1014.71 1014.81 1014.99 1015.25 1015.56 1015.87 1016.12 1016.27 1016.28 1016.16 1015.93 1015.65 1015.38 1015.15 1015.02
1012.77 1012.86 1012.98 1013.21 1013.65 1014.32 1015.20 1016.20 1017.20 1018.03 1018.55 1018.65 1018.28 1017.47 1016.33 1015.02 1013.73 1012.62 1011.84 1011.45 1011.46 1011.78 1012.32 1012.95 1013.54 1014.00 1014.31 1014.47 1014.53 1014.55 1014.60 1014.73 1014.93 1015.20 1015.49 1015.75 1015.93 1016.00 1015.94 1015.78 1015.57 1015.35 1015.16 1015.03
1012.63 1012.66 1012.77 1013.06 1013.60 1014.41 1015.44 1016.59 1017.69 1018.59 1019.12 1019.17 1018.71 1017.79 1016.51 1015.06 1013.63 1012.42 1011.56 1011.13 1011.12 1011.45 1012.03 1012.70 1013.34 1013.84 1014.18 1014.35 1014.39 1014.38 1014.37 1014.42 1014.57 1014.78 1015.04 1015.29 1015.50 1015.61 1015.63 1015.55 1015.41 1015.25 1015.10 1014.99
1012.55 1012.56 1012.70 1013.06 1013.70 1014.61 1015.73 1016.95 1018.10 1018.99 1019.48 1019.47 1018.93 1017.91 1016.55 1015.01 1013.52 1012.25 1011.35 1010.89 1010.87 1011.21 1011.80 1012.49 1013.15 1013.68 1014.03 1014.20 1014.23 1014.17 1014.12 1014.11 1014.18 1014.34 1014.56 1014.80 1015.02 1015.18 1015.26 1015.26 1015.20 1015.10 1014.99 1014.89
1012.51 1012.56 1012.76 1013.19 1013.89 1014.84 1015.99 1017.20 1018.30 1019.13 1019.55 1019.47 1018.86 1017.79 1016.39 1014.84 1013.35 1012.09 1011.19 1010.74 1010.71 1011.04 1011.62 1012.30 1012.95 1013.48 1013.83 1013.99 1014.01 1013.94 1013.84 1013.79 1013.81 1013.93 1014.11 1014.33 1014.56 1014.75 1014.87 1014.93 1014.93 1014.89 1014.82 1014.74
1012.48 1012.60 1012.88 1013.36 1014.09 1015.03 1016.12 1017.24 1018.23 1018.94 1019.26 1019.09 1018.44 1017.37 1016.01 1014.52 1013.10 1011.91 1011.07 1010.64 1010.61 1010.92 1011.46 1012.10 1012.72 1013.21 1013.55 1013.71 1013.73 1013.65 1013.55 1013.48 1013.48 1013.56 1013.72 1013.93 1014.15 1014.35 1014.50 1014.60 1014.64 1014.64 1014.60 1014.55
1012.44 1012.66 1013.01 1013.53 1014.24 1015.12 1016.09 1017.04 1017.86 1018.40 1018.58 1018.34 1017.67 1016.65 1015.38 1014.03 1012.74 1011.68 1010.93 1010.55 1010.53 1010.81 1011.28 1011.85 1012.40 1012.86 1013.17 1013.33 1013.36 1013.31 1013.23 1013.17 1013.18 1013.26 1013.40 1013.59 1013.79 1013.99 1014.15 1014.27 1014.33 1014.36 1014.34 1014.31
1012.37 1012.70 1013.13 1013.66 1014.32 1015.07 1015.86 1016.60 1017.19 1017.54 1017.57 1017.25 1016.59 1015.65 1014.53 1013.35 1012.26 1011.36 1010.74 1010.42 1010.41 1010.64 1011.05 1011.53 1012.00 1012.39 1012.67 1012.83 1012.89 1012.88 1012.86 1012.85 1012.89 1012.98 1013.12 1013.30 1013.49 1013.67 1013.81 1013.93 1014.00 1014.03 1014.04 1014.02
1012.32 1012.75 1013.23 1013.75 1014.31 1014.90 1015.47 1015.96 1016.29 1016.42 1016.30 1015.90 1015.26 1014.42 1013.47 1012.51 1011.63 1010.92 1010.43 1010.20 1010.19 1010.38 1010.71 1011.09 1011.47 1011.80 1012.05 1012.22 1012.32 1012.38 1012.43 1012.49 1012.58 1012.71 1012.86 1013.03 1013.19 1013.35 1013.47 1013.56 1013.62 1013.66 1013.67 1013.67
1012.33 1012.83 1013.32 1013.79 1014.24 1014.63 1014.95 1015.17 1015.24 1015.13 1014.85 1014.38 1013.76 1013.03 1012.26 1011.51 1010.84 1010.33 1009.99 1009.83 1009.84 1009.99 1010.24 1010.53 1010.82 1011.09 1011.32 1011.51 1011.66 1011.80 1011.94 1012.08 1012.24 1012.41 1012.58 1012.74 1012.88 1013.00 1013.09 1013.16 1013.20 1013.23 1013.25 1013.25
1012.44 1012.97 1013.43 1013.82 1014.11 1014.29 1014.36 1014.29 1014.10 1013.77 1013.33 1012.79 1012.18 1011.55 1010.93 1010.38 1009.92 1009.59 1009.38 1009.30 1009.34 1009.46 1009.64 1009.86 1010.08 1010.31 1010.53 1010.74 1010.95 1011.17 1011.40 1011.62 1011.85 1012.06 1012.25 1012.41 1012.53 1012.61 1012.67 1012.70 1012.73 1012.74 1012.75 1012.77
1012.67 1013.17 1013.56 1013.82 1013.94 1013.91 1013.72 1013.40 1012.95 1012.42 1011.83 1011.22 1010.61 1010.06 1009.57 1009.19 1008.90 1008.72 1008.63 1008.63 1008.69 1008.80 1008.94 1009.11 1009.29 1009.49 1009.71 1009.96 1010.23 1010.53 1010.83 1011.14 1011.42 1011.67 1011.88 1012.03 1012.13 1012.19 1012.21 1012.22 1012.21 1012.21 1012.21 1012.22
1012.98 1013.38 1013.65 1013.77 1013.70 1013.46 1013.05 1012.49 1011.84 1011.13 1010.42 1009.74 1009.14 1008.64 1008.25 1007.99 1007.84 1007.78 1007.79 1007.86 1007.96 1008.07 1008.20 1008.34 1008.51 1008.71 1008.95 1009.24 1009.57 1009.92 1010.30 1010.66 1010.99 1011.27 1011.48 1011.63 1011.72 1011.75 1011.75 1011.73 1011.70 1011.67 1011.66 1011.64
1013.28 1013.53 1013.65 1013.59 1013.35 1012.92 1012.32 1011.59 1010.78 1009.94 1009.14 1008.42 1007.81 1007.35 1007.04 1006.87 1006.81 1006.85 1006.94 1007.06 1007.20 1007.34 1007.48 1007.64 1007.82 1008.04 1008.32 1008.64 1009.02 1009.42 1009.84 1010.24 1010.59 1010.89 1011.11 1011.25 1011.33 1011.34 1011.32 1011.28 1011.23 1011.18 1011.13 1011.08
1013.44 1013.51 1013.45 1013.22 1012.82 1012.24 1011.51 1010.66 1009.76 1008.86 1008.02 1007.28 1006.69 1006.26 1005.99 1005.88 1005.89 1005.99 1006.14 1006.32 1006.50 1006.68 1006.86 1007.05 1007.27 1007.54 1007.85 1008.22 1008.63 1009.07 1009.50 1009.92 1010.28 1010.58 1010.80 1010.94 1011.00 1011.01 1010.98 1010.92 1010.85 1010.77 1010.69 1010.58
1013.35 1013.22 1012.98 1012.60 1012.07 1011.39 1010.59 1009.70 1008.78 1007.87 1007.04 1006.33 1005.76 1005.37 1005.14 1005.08 1005.13 1005.27 1005.46 1005.69 1005.92 1006.15 1006.38 1006.63 1006.90 1007.22 1007.58 1007.98 1008.42 1008.87 1009.32 1009.73 1010.09 1010.38 1010.59 1010.72 1010.78 1010.79 1010.76 1010.70 1010.61 1010.50 1010.36 1010.20
1012.94 1012.62 1012.21 1011.71 1011.09 1010.37 1009.56 1008.70 1007.82 1006.97 1006.20 1005.54 1005.03 1004.68 1004.49 1004.45 1004.52 1004.69 1004.92 1005.18 1005.46 1005.75 1006.05 1006.37 1006.71 1007.08 1007.49 1007.92 1008.38 1008.84 1009.27 1009.67 1010.01 1010.29 1010.49 1010.62 1010.69 1010.70 1010.68 1010.61 1010.51 1010.37 1010.19 1009.97
1012.20 1011.71 1011.18 1010.58 1009.93 1009.22 1008.46 1007.67 1006.88 1006.14 1005.46 1004.89 1004.44 1004.14 1003.98 1003.96 1004.05 1004.23 1004.48 1004.78 1005.11 1005.46 1005.83 1006.22 1006.63 1007.07 1007.52 1007.99 1008.46 1008.92 1009.34 1009.72 1010.04 1010.30 1010.49 1010.62 1010.70 1010.73 1010.72 1010.66 1010.56 1010.40 1010.18 1009.91
1011.20 1010.58 1009.96 1009.33 1008.68 1008.01 1007.34 1006.66 1005.99 1005.37 1004.80 1004.32 1003.94 1003.68 1003.55 1003.53 1003.63 1003.82 1004.09 1004.42 1004.80 1005.21 1005.66 1006.13 1006.61 1007.11 1007.62 1008.12 1008.60 1009.05 1009.46 1009.82 1010.12 1010.37 1010.56 1010.71 1010.81 1010.86 1010.87 1010.83 1010.73 1010.57 1010.32 1010.00
1010.07 1009.38 1008.71 1008.07 1007.46 1006.87 1006.29 1005.72 1005.18 1004.66 1004.19 1003.79 1003.46 1003.23 1003.10 1003.09 1003.18 1003.37 1003.65 1004.02 1004.44 1004.93 1005.45 1006.00 1006.56 1007.13 1007.69 1008.22 1008.72 1009.18 1009.58 1009.93 1010.23 1010.47 1010.67 1010.83 1010.96 1011.04 1011.09 1011.07 1010.99 1010.83 1010.59 1010.25
1008.96 1008.24 1007.58 1006.97 1006.41 1005.89 1005.40 1004.93 1004.47 1004.03 1003.62 1003.25 1002.95 1002.71 1002.57 1002.54 1002.62 1002.81 1003.10 1003.50 1003.98 1004.52 1005.13 1005.76 1006.40 1007.04 1007.66 1008.24 1008.77 1009.24 1009.65 1010.00 1010.30 1010.55 1010.77 1010.96 1011.12 1011.25 1011.33 1011.36 1011.31 1011.17 1010.94 1010.61
Thickness
5721 5712 5707 5715 5722 5723 5718 5713 5713 5722 5735 5727 5721 5723 5730 5732 5729 5726 5723 5720 5719 5720 5722 5722 5720 5717 5713 5709 5705 5701 5697 5694 5690 5686 5682 5679 5675 5673 5670 5668 5665 5663 5661 5661
5707 5707 5722 5727 5725 5722 5718 5712 5714 5723 5731 5725 5719 5720 5729 5731 5730 5730 5728 5724 5722 5720 5720 5719 5717 5715 5712 5709 5705 5701 5697 5694 5691 5687 5683 5678 5675 5672 5669 5666 5664 5662 5660 5659
5706 5716 5727 5724 5718 5714 5713 5712 5715 5717 5722 5723 5717 5713 5722 5731 5734 5734 5733 5730 5726 5723 5720 5718 5716 5714 5711 5708 5705 5702 5698 5695 5692 5688 5683 5679 5675 5672 5668 5665 5663 5661 5660 5658
5711 5721 5724 5720 5717 5717 5708 5724 5723 5718 5707 5698 5706 5687 5710 5720 5725 5729 5730 5728 5726 5725 5722 5719 5716 5714 5712 5710 5707 5703 5700 5696 5693 5689 5684 5679 5674 5669 5667 5664 5662 5661 5660 5658
5709 5717 5718 5716 5722 5723 5719 5726 5719 5713 5704 5693 5696 5686 5699 5715 5718 5725 5729 5729 5728 5726 5724 5721 5719 5717 5714 5711 5707 5704 5700 5697 5693 5689 5685 5680 5675 5671 5668 5665 5663 5661 5660 5658
5713 5724 5725 5724 5728 5728 5722 5713 5703 5692 5687 5678 5691 5683 5690 5704 5718 5728 5733 5732 5730 5728 5725 5723 5720 5718 5714 5711 5708 5704 5700 5697 5694 5690 5686 5681 5677 5673 5669 5666 5663 5660 5659 5658
5706 5716 5726 5730 5720 5719 5715 5695 5675 5673 5664 5671 5690 5686 5693 5720 5727 5731 5735 5734 5732 5729 5725 5722 5719 5716 5713 5711 5708 5705 5701 5698 5695 5691 5687 5683 5679 5674 5670 5667 5663 5660 5657 5656
5694 5696 5719 5727 5722 5712 5706 5697 5674 5664 5661 5670 5685 5682 5705 5728 5733 5737 5738 5736 5733 5728 5725 5723 5721 5718 5715 5712 5709 5706 5702 5699 5696 5692 5688 5684 5680 5676 5672 5668 5665 5661 5658 5656
5694 5698 5722 5729 5728 5717 5701 5694 5692 5673 5671 5666 5674 5689 5711 5731 5733 5734 5734 5732 5730 5729 5727 5725 5723 5719 5716 5713 5711 5708 5704 5700 5697 5694 5690 5686 5682 5678 5674 5670 5667 5663 5660 5658
5708 5700 5715 5724 5724 5715 5710 5693 5677 5668 5660 5658 5670 5681 5694 5717 5725 5730 5730 5729 5730 5730 5728 5726 5724 5721 5718 5716 5713 5709 5706 5702 5699 5695 5691 5688 5683 5679 5676 5672 5668 5665 5662 5659
5715 5701 5704 5712 5710 5705 5698 5692 5678 5663 5663 5654 5657 5677 5712 5719 5726 5727 5730 5732 5732 5731 5729 5728 5725 5723 5720 5717 5713 5710 5707 5703 5700 5696 5692 5688 5685 5681 5677 5673 5670 5666 5663 5660
5709 5695 5688 5701 5714 5717 5709 5697 5681 5672 5666 5656 5654 5677 5723 5724 5727 5729 5731 5733 5734 5733 5732 5730 5727 5723 5720 5717 5714 5711 5708 5705 5702 5698 5693 5689 5685 5681 5677 5674 5671 5668 5664 5661
5707 5694 5680 5684 5692 5704 5704 5697 5689 5677 5663 5649 5653 5681 5722 5725 5729 5730 5731 5733 5733 5733 5732 5729 5726 5722 5720 5717 5715 5712 5709 5706 5703 5698 5694 5690 5686 5682 5678 5675 5672 5668 5665 5662
5713 5694 5685 5680 5685 5695 5697 5696 5686 5678 5664 5658 5665 5687 5711 5722 5726 5730 5732 5734 5733 5733 5732 5729 5725 5723 5721 5719 5716 5713 5710 5707 5703 5699 5694 5690 5687 5683 5679 5676 5672 5669 5666 5662
5710 5694 5694 5694 5699 5699 5698 5698 5688 5683 5683 5677 5686 5690 5710 5721 5727 5732 5734 5734 5733 5733 5732 5730 5727 5725 5722 5719 5716 5714 5711 5708 5704 5699 5694 5691 5688 5684 5680 5676 5673 5670 5666 5663
5702 5696 5693 5693 5700 5694 5691 5697 5693 5691 5692 5690 5694 5701 5723 5727 5730 5731 5733 5733 5732 5733 5734 5733 5730 5727 5723 5721 5718 5715 5712 5708 5704 5699 5696 5693 5688 5684 5681 5677 5673 5670 5666 5663
5691 5687 5679 5675 5686 5688 5682 5699 5700 5699 5702 5702 5700 5718 5729 5727 5729 5733 5735 5735 5736 5737 5736 5735 5732 5730 5727 5724 5721 5716 5714 5709 5704 5700 5697 5693 5689 5685 5681 5678 5673 5670 5667 5663
5687 5679 5669 5668 5678 5669 5696 5716 5715 5710 5714 5715 5721 5728 5732 5735 5739 5742 5742 5740 5739 5740 5738 5737 5735 5732 5730 5726 5722 5718 5713 5708 5704 5700 5696 5693 5689 5685 5681 5677 5673 5670 5667 5663
5691 5679 5663 5658 5662 5671 5696 5714 5713 5708 5713 5728 5727 5733 5736 5736 5736 5738 5745 5744 5744 5744 5742 5740 5738 5734 5730 5726 5722 5716 5711 5706 5702 5699 5696 5693 5689 5685 5681 5677 5674 5671 5667 5664
5681 5678 5665 5654 5663 5665 5695 5720 5725 5716 5712 5737 5734 5734 5732 5728 5719 5733 5748 5746 5745 5744 5742 5739 5736 5732 5728 5724 5720 5714 5709 5704 5701 5700 5697 5693 5689 5685 5681 5678 5674 5671 5667 5664
5672 5666 5661 5654 5656 5673 5707 5718 5718 5700 5709 5739 5738 5736 5731 5731 5739 5747 5749 5746 5744 5742 5739 5736 5732 5728 5725 5722 5717 5711 5706 5703 5702 5699 5695 5691 5688 5684 5680 5676 5673 5669 5666 5663
5669 5661 5656 5650 5653 5672 5715 5711 5705 5712 5728 5734 5737 5737 5735 5738 5742 5742 5743 5741 5739 5736 5734 5730 5726 5723 5720 5717 5713 5708 5704 5703 5699 5695 5691 5688 5684 5682 5679 5674 5670 5667 5664 5660
5668 5673 5669 5670 5684 5705 5711 5712 5718 5720 5722 5729 5732 5736 5735 5734 5735 5736 5736 5735 5734 5731 5728 5725 5721 5716 5713 5711 5709 5705 5702 5698 5695 5690 5686 5683 5680 5676 5673 5669 5666 5663 5659 5656
5670 5672 5668 5668 5685 5698 5704 5708 5714 5718 5721 5727 5729 5732 5732 5731 5732 5731 5730 5728 5727 5725 5722 5718 5715 5710 5706 5704 5703 5701 5697 5694 5690 5685 5681 5677 5673 5670 5667 5664 5661 5657 5653 5650
5663 5662 5659 5664 5679 5690 5703 5706 5710 5715 5719 5723 5726 5728 5729 5729 5728 5727 5726 5724 5722 5719 5716 5713 5710 5706 5701 5698 5696 5694 5691 5688 5683 5679 5674 5670 5667 5663 5660 5657 5654 5651 5648 5645
5654 5654 5652 5660 5676 5675 5687 5700 5704 5706 5711 5715 5717 5721 5725 5725 5725 5724 5723 5721 5718 5714 5710 5706 5702 5699 5695 5691 5689 5686 5684 5682 5677 5671 5667 5663 5659 5656 5652 5649 5646 5644 5642 5640